Location: Corcelles
(46.1547°N, 4.7234°E)
Time: 07:17:07
(UTC+00:00)

SeaSat 1 - Pass Details

Date: 14 July 2020
Orbit: 744 x 748 km, 108.0° (Epoch: 14 August)

Event Time Altitude Azimuth Distance (km) Brightness Sun altitude
Rises 00:36:59 0° 40° (NE) 3,200 6.8 -21.3°
Reaches altitude 10° 00:39:44 10° 55° (NE) 2,271 5.6 -21.2°
Maximum altitude 00:43:34 22° 106° (ESE) 1,586 4.1 -21.0°
Enters shadow 00:45:02 20° 131° (SE) 1,703 4.0 -20.9°
